GW0468 Weather Reports


time (UTC)temp
C
wind
direction
speed
KPH
gust
KPH
rain 1hr
cm
rain 24hr
cm
rain mn
cm
humidity
%
barometer
mb
20260510045154 22 228 0.0 1.6 0.00 0.00 0.00 17 1009.8
20260510044654 22 151 0.0 1.6 0.00 0.00 0.00 20 1009.9
20260510044153 22 158 0.0 0.0 0.00 0.00 0.00 22 1009.8
20260510043655 22 154 0.0 0.0 0.00 0.00 0.00 26 1009.9
20260510042656 23 154 0.0 0.0 0.00 0.00 0.00 31 1010.0
20260510042153 23 154 0.0 1.6 0.00 0.00 0.00 37 1010.0
20260510040654 23 159 1.6 4.8 0.00 0.00 0.00 41 1009.8
20260510034652 23 127 0.0 3.2 0.00 0.00 0.00 44 1009.6
20260510034153 24 149 0.0 3.2 0.00 0.00 0.00 45 1009.6
20260510033654 24 152 1.6 6.4 0.00 0.00 0.00 46 1009.6
20260510033153 24 131 1.6 6.4 0.00 0.00 0.00 47 1009.5
20260510032655 24 140 1.6 4.8 0.00 0.00 0.00 46 1009.4
20260510032152 24 131 3.2 4.8 0.00 0.00 0.00 43 1009.5
20260510031653 24 134 1.6 4.8 0.00 0.00 0.00 42 1009.4
20260510031151 24 107 0.0 4.8 0.00 0.00 0.00 43 1009.4
20260510030152 24 120 1.6 4.8 0.00 0.00 0.00 46 1009.0
20260510025653 25 80 0.0 4.8 0.00 0.00 0.00 48 1009.0
20260510025151 25 82 3.2 4.8 0.00 0.00 0.00 49 1008.9
20260510024652 25 149 0.0 0.0 0.00 0.00 0.00 53 1008.7
20260510024151 25 149 0.0 0.0 0.00 0.00 0.00 55 1008.6
20260510023652 25 149 0.0 1.6 0.00 0.00 0.00 58 1008.5
20260510022151 25 142 0.0 1.6 0.00 0.00 0.00 61 1008.1
20260510021650 26 134 0.0 9.7 0.00 0.00 0.00 62 1008.2
20260510021151 26 134 0.0 9.7 0.00 0.00 0.00 62 1008.2
20260510020652 26 130 1.6 8.0 0.00 0.00 0.00 63 1008.2
20260510020151 26 159 0.0 8.0 0.00 0.00 0.00 63 1008.0
20260510015652 26 173 1.6 8.0 0.00 0.00 0.00 63 1007.9
20260510015150 26 148 3.2 11.3 0.00 0.00 0.00 64 1007.7
20260510014650 26 162 4.8 14.5 0.00 0.00 0.00 65 1007.6
20260510013651 27 207 6.4 16.1 0.00 0.00 0.00 65 1007.4
20260510013148 27 159 6.4 14.5 0.00 0.00 0.00 65 1007.6
20260510012148 27 175 8.0 19.3 0.00 0.00 0.00 65 1007.7
20260510011651 27 157 9.7 19.3 0.00 0.00 0.00 65 1007.8
20260510011150 27 161 4.8 11.3 0.00 0.00 0.00 65 1007.8
20260510010650 27 161 4.8 11.3 0.00 0.00 0.00 65 1008.0
20260510010149 28 162 4.8 11.3 0.00 0.00 0.00 65 1008.0
20260510004650 28 154 4.8 17.7 0.00 0.00 0.00 65 1007.8
20260510004148 29 148 9.7 19.3 0.00 0.00 0.00 64 1007.8
20260510003650 29 154 8.0 22.5 0.00 0.00 0.00 61 1007.9
20260510003148 30 151 12.9 22.5 0.00 0.00 0.00 61 1007.8
20260510001648 32 164 3.2 9.7 0.00 0.00 0.00 56 1007.2
20260510000649 32 145 3.2 6.4 0.00 0.00 0.00 56 1007.1
20260510000147 32 135 1.6 4.8 0.00 0.00 0.00 54 1007.2
20260509235146 33 124 3.2 4.8 0.00 0.00 0.00 52 1007.1
20260509234648 33 106 3.2 4.8 0.00 0.00 0.00 51 1007.0
20260509234147 33 157 0.0 4.8 0.00 0.00 0.00 49 1007.0
20260509233648 33 165 0.0 4.8 0.00 0.00 0.00 51 1006.9
20260509233145 33 133 3.2 6.4 0.00 0.00 0.00 52 1006.8
20260509232650 33 193 1.6 8.0 0.00 0.00 0.00 52 1007.0
20260509232146 33 135 4.8 8.0 0.00 0.00 0.00 52 1006.9
20260509231647 33 144 1.6 6.4 0.00 0.00 0.00 50 1007.0
20260509231145 33 100 1.6 4.8 0.00 0.00 0.00 50 1007.0
20260509230146 33 149 3.2 8.0 0.00 0.00 0.00 50 1006.9
20260509225649 33 147 3.2 6.4 0.00 0.00 0.00 51 1006.9
20260509225146 33 138 4.8 6.4 0.00 0.00 0.00 51 1006.9
20260509224142 33 149 0.0 6.4 0.00 0.00 0.00 52 1006.9
20260509222648 33 169 1.6 6.4 0.00 0.00 0.00 51 1006.9
20260509221647 33 327 0.0 4.8 0.00 0.00 0.00 55 1007.0
20260509221146 33 330 1.6 4.8 0.00 0.00 0.00 54 1006.9
20260509220645 32 307 0.0 4.8 0.00 0.00 0.00 51 1007.0
20260509220145 33 99 1.6 4.8 0.00 0.00 0.00 51 1007.1
20260509215646 33 134 0.0 4.8 0.00 0.00 0.00 53 1007.1
20260509215144 32 166 3.2 8.0 0.00 0.00 0.00 53 1007.1
20260509214145 32 182 3.2 4.8 0.00 0.00 0.00 55 1007.0
20260509213646 32 151 1.6 3.2 0.00 0.00 0.00 55 1007.0
20260509213143 32 217 0.0 3.2 0.00 0.00 0.00 57 1007.1
20260509212646 31 217 0.0 3.2 0.00 0.00 0.00 55 1007.1
20260509212144 31 206 0.0 6.4 0.00 0.00 0.00 55 1007.1
20260509211643 31 290 1.6 6.4 0.00 0.00 0.00 55 1007.0
20260509211142 31 327 1.6 6.4 0.00 0.00 0.00 55 1007.1
20260509210142 31 303 1.6 4.8 0.00 0.00 0.00 57 1007.2
20260509205645 31 307 1.6 6.4 0.00 0.00 0.00 55 1007.3
20260509205144 31 279 1.6 11.3 0.00 0.00 0.00 55 1007.2
20260509204645 32 292 3.2 11.3 0.00 0.00 0.00 53 1007.4
20260509204142 32 324 1.6 11.3 0.00 0.00 0.00 53 1007.4
20260509203643 32 300 1.6 6.4 0.00 0.00 0.00 54 1007.4
20260509202644 32 283 1.6 4.8 0.00 0.00 0.00 54 1007.6
20260509202141 32 162 0.0 4.8 0.00 0.00 0.00 56 1007.6
20260509201644 31 309 0.0 4.8 0.00 0.00 0.00 57 1007.7
20260509200644 32 344 1.6 8.0 0.00 0.00 0.00 55 1007.8
20260509200143 32 61 1.6 8.0 0.00 0.00 0.00 56 1007.8
20260509195645 32 18 3.2 16.1 0.00 0.00 0.00 56 1007.9
20260509194643 32 326 6.4 11.3 0.00 0.00 0.00 57 1008.1
20260509194142 31 337 1.6 6.4 0.00 0.00 0.00 57 1008.1
20260509193643 31 238 1.6 6.4 0.00 0.00 0.00 58 1008.1
20260509193142 31 261 3.2 9.7 0.00 0.00 0.00 59 1008.3
20260509192643 31 254 1.6 9.7 0.00 0.00 0.00 56 1008.3
20260509192140 31 106 0.0 16.1 0.00 0.00 0.00 56 1008.4
20260509191642 31 329 1.6 16.1 0.00 0.00 0.00 56 1008.4
20260509191140 31 309 9.7 14.5 0.00 0.00 0.00 56 1008.4
20260509190642 31 244 1.6 11.3 0.00 0.00 0.00 59 1008.3
20260509190141 31 257 8.0 11.3 0.00 0.00 0.00 57 1008.4
20260509185644 31 73 3.2 9.7 0.00 0.00 0.00 60 1008.4
20260509185140 30 331 3.2 11.3 0.00 0.00 0.00 60 1008.6
20260509183641 31 313 1.6 4.8 0.00 0.00 0.00 60 1008.7
20260509182643 30 327 1.6 4.8 0.00 0.00 0.00 63 1008.7
20260509182141 30 333 1.6 6.4 0.00 0.00 0.00 63 1008.7
20260509181139 30 312 4.8 9.7 0.00 0.00 0.00 63 1009.0
20260509180639 30 320 4.8 11.3 0.00 0.00 0.00 63 1009.2
20260509180139 30 290 4.8 11.3 0.00 0.00 0.00 62 1009.1
20260509175643 29 329 1.6 11.3 0.00 0.00 0.00 62 1009.2
20260509175140 30 282 4.8 11.3 0.00 0.00 0.00 62 1009.3
20260509174641 30 300 3.2 8.0 0.00 0.00 0.00 62 1009.3
20260509174140 30 258 0.0 14.5 0.00 0.00 0.00 62 1009.4
20260509173640 30 47 0.0 17.7 0.00 0.00 0.00 62 1009.5
20260509173139 30 314 8.0 17.7 0.00 0.00 0.00 61 1009.5
20260509172641 30 244 1.6 6.4 0.00 0.00 0.00 63 1009.6
20260509171640 29 295 1.6 6.4 0.00 0.00 0.00 62 1009.6
20260509171139 29 123 0.0 6.4 0.00 0.00 0.00 63 1009.6
20260509170639 29 63 1.6 4.8 0.00 0.00 0.00 63 1009.6
20260509170139 29 41 0.0 4.8 0.00 0.00 0.00 63 1009.7
20260509165640 29 85 0.0 4.8 0.00 0.00 0.00 63 1009.6
20260509165137 28 326 0.0 4.8 0.00 0.00 0.00 64 1009.6
20260509164639 28 35 0.0 3.2 0.00 0.00 0.00 65 1009.9
20260509164139 28 178 0.0 6.4 0.00 0.00 0.00 66 1009.7
20260509163640 28 319 1.6 6.4 0.00 0.00 0.00 65 1009.8
20260509161639 27 104 0.0 3.2 0.00 0.00 0.00 66 1009.0
20260509161137 27 106 1.6 3.2 0.00 0.00 0.00 65 1008.6
20260509160637 27 131 1.6 8.0 0.00 0.00 0.00 61 1008.4
20260509155638 26 310 3.2 9.7 0.00 0.00 0.00 56 1009.1
20260509155138 26 279 6.4 11.3 0.00 0.00 0.00 60 1009.0
20260509154137 26 299 6.4 11.3 0.00 0.00 0.00 54 1009.2
20260509153639 26 212 6.4 11.3 0.00 0.00 0.00 52 1009.3
20260509153137 26 292 6.4 9.7 0.00 0.00 0.00 40 1009.5
20260509151637 25 252 6.4 9.7 0.00 0.00 0.00 1 1009.3
20260509150636 25 302 8.0 17.7 0.00 0.00 0.00 1 1009.1
20260509145636 25 206 8.0 14.5 0.00 0.00 0.00 1 1008.8
20260509144636 25 226 4.8 11.3 0.00 0.00 0.00 1 1009.1
20260509144135 25 224 6.4 11.3 0.00 0.00 0.00 1 1009.1
20260509143635 25 223 3.2 6.4 0.00 0.00 0.00 1 1009.3
20260509143135 25 204 3.2 6.4 0.00 0.00 0.00 1 1009.6
20260509142135 25 244 3.2 4.8 0.00 0.00 0.00 1 1010.0
20260509141135 25 172 0.0 3.2 0.00 0.00 0.00 1 1009.9
20260509140635 25 172 0.0 0.0 0.00 0.00 0.00 1 1009.8
20260509140134 24 172 0.0 1.6 0.00 0.00 0.00 1 1009.8
20260509135636 24 172 0.0 1.6 0.00 0.00 0.00 1 1009.7
20260509135135 24 172 0.0 0.0 0.00 0.00 0.00 1 1009.7
20260509134636 24 172 0.0 0.0 0.00 0.00 0.00 1 1009.9
20260509134133 24 172 0.0 3.2 0.00 0.00 0.00 1 1009.8
20260509133134 24 172 0.0 0.0 0.00 0.00 0.00 1 1009.4
20260509132134 24 254 0.0 4.8 0.00 0.00 0.00 1 1009.4
20260509131635 24 240 1.6 4.8 0.00 0.00 0.00 1 1009.3
20260509130632 24 329 0.0 1.6 0.00 0.00 0.00 1 1009.2
20260509125632 24 330 0.0 3.2 0.00 0.00 0.00 1 1009.3
20260509124629 -17 0.0 0.0 0.00 0.00 0.00 1009.4
20260509124121 -17 0.0 0.0 0.00 0.00 0.00 1009.4
20260509123616 -17 0.0 0.0 0.00 0.00 0.00 1009.6
20260509122605 -17 0.0 0.0 0.00 0.00 0.00 1009.7
20260509122057 -17 0.0 0.0 0.00 0.00 0.00 1009.9
20260509121551 -17 0.0 0.0 0.00 0.00 0.00 1009.7
20260509120539 -17 0.0 0.0 0.00 0.00 0.00 1008.3
20260509120031 -17 0.0 0.0 0.00 0.00 0.00 1007.4
20260509115528 -17 0.0 0.0 0.00 0.00 0.00 1006.4
20260509115019 -17 0.0 0.0 0.00 0.00 0.00 1006.4
20260509114514 -17 0.0 0.0 0.00 0.00 0.00 1006.2
20260509114006 -17 0.0 0.0 0.00 0.00 0.00 1006.2
20260509113501 -17 0.0 0.0 0.00 0.00 0.00 1006.7
20260509111942 -17 0.0 0.0 0.00 0.00 0.00 1009.3
20260509111437 -17 0.0 0.0 0.00 0.00 0.00 1009.9
20260509110929 -17 0.0 0.0 0.00 0.00 0.00 1009.7
20260509105918 -17 0.0 0.0 0.00 0.00 0.00 1009.4
20260509105414 -17 0.0 0.0 0.00 0.00 0.00 1009.5
20260509104905 -17 0.0 0.0 0.00 0.00 0.00 1009.1
20260509104400 -17 0.0 0.0 0.00 0.00 0.00 1008.7
20260509103853 -17 0.0 0.0 0.00 0.00 0.00 1009.0
20260509103347 -17 0.0 0.0 0.00 0.00 0.00 1009.0
20260509102840 -17 0.0 0.0 0.00 0.00 0.00 1008.7
20260509102336 -17 0.0 0.0 0.00 0.00 0.00 1008.6
20260509101828 -17 0.0 0.0 0.00 0.00 0.00 1008.6
20260509101322 -17 0.0 0.0 0.00 0.00 0.00 1008.7
20260509100816 -17 0.0 0.0 0.00 0.00 0.00 1008.6
20260509100310 -17 0.0 0.0 0.00 0.00 0.00 1008.7
20260509095300 -17 0.0 0.0 0.00 0.00 0.00 1008.4
20260509094751 -17 0.0 0.0 0.00 0.00 0.00 1008.1
20260509094245 -17 0.0 0.0 0.00 0.00 0.00 1008.1
20260509093738 -17 0.0 0.0 0.00 0.00 0.00 1008.1
20260509093234 -17 0.0 0.0 0.00 0.00 0.00 1008.3
20260509092223 22 173 0.0 0.0 0.00 0.00 0.00 1 1008.2
20260509091718 22 175 0.0 0.0 0.00 0.00 0.00 1 1008.3
20260509091220 22 175 0.0 0.0 0.00 0.00 0.00 1 1008.1
20260509090718 22 175 0.0 0.0 0.00 0.00 0.00 1 1008.1
20260509085719 22 175 0.0 0.0 0.00 0.00 0.00 1 1008.1
20260509085221 22 175 0.0 0.0 0.00 0.00 0.00 1 1008.1
20260509084719 22 175 0.0 0.0 0.00 0.00 0.00 1 1008.2
20260509083719 22 175 0.0 0.0 0.00 0.00 0.00 1 1008.3
20260509082718 22 175 0.0 0.0 0.00 0.00 0.00 1 1008.1
20260509082220 22 175 0.0 0.0 0.00 0.00 0.00 1 1008.1
20260509081219 22 175 0.0 6.4 0.00 0.00 0.00 1 1008.1
20260509080219 22 110 1.6 6.4 0.00 0.00 0.00 1 1008.1
20260509075716 22 114 3.2 8.0 0.00 0.00 0.00 1 1008.2
20260509074717 22 113 4.8 8.0 0.00 0.00 0.00 1 1008.2
20260509074218 22 106 3.2 6.4 0.00 0.00 0.00 1 1008.4
20260509073717 22 123 3.2 6.4 0.00 0.00 0.00 1 1008.5
20260509072716 22 127 1.6 8.0 0.00 0.00 0.00 1 1008.5
20260509072217 22 138 4.8 8.0 0.00 0.00 0.00 1 1008.6
20260509071717 22 128 3.2 6.4 0.00 0.00 0.00 1 1008.6
20260509071218 22 125 4.8 6.4 0.00 0.00 0.00 1 1008.5
20260509070715 22 123 3.2 4.8 0.00 0.00 0.00 1 1008.7
20260509070217 22 114 0.0 3.2 0.00 0.00 0.00 1 1008.8
20260509065717 22 117 0.0 1.6 0.00 0.00 0.00 1 1008.9
20260509065218 22 120 0.0 0.0 0.00 0.00 0.00 1 1009.0
20260509064716 22 120 0.0 0.0 0.00 0.00 0.00 1 1009.0
20260509064218 22 120 0.0 0.0 0.00 0.00 0.00 1 1009.2
20260509063716 22 120 0.0 1.6 0.00 0.00 0.00 1 1009.3
20260509063217 22 120 0.0 1.6 0.00 0.00 0.00 1 1009.4
20260509062714 22 120 0.0 0.0 0.00 0.00 0.00 1 1009.4
20260509062219 22 120 0.0 0.0 0.00 0.00 0.00 1 1009.4
20260509061716 22 120 0.0 0.0 0.00 0.00 0.00 1 1009.4
20260509061216 22 120 0.0 1.6 0.00 0.00 0.00 1 1009.4
20260509060715 22 120 0.0 1.6 0.00 0.00 0.00 1 1009.3
20260509060217 22 120 0.0 1.6 0.00 0.00 0.00 1 1009.3
20260509055215 22 125 0.0 1.6 0.00 0.00 0.00 1 1009.3
20260509054215 22 138 0.0 4.8 0.00 0.00 0.00 1 1009.1
20260509053715 22 140 0.0 4.8 0.00 0.00 0.00 1 1009.2
20260509053215 22 130 3.2 4.8 0.00 0.00 0.00 1 1009.2
20260509052713 22 110 0.0 3.2 0.00 0.00 0.00 1 1009.2
20260509052216 22 89 1.6 4.8 0.00 0.00 0.00 1 1009.2
20260509051713 22 87 3.2 4.8 0.00 0.00 0.00 1 1009.3
20260509051215 23 97 1.6 3.2 0.00 0.00 0.00 1 1009.3
20260509050714 23 121 0.0 3.2 0.00 0.00 0.00 1 1009.3
20260509050214 23 111 1.6 1.6 0.00 0.00 0.00 1 1009.6
20260509045714 23 111 0.0 1.6 0.00 0.00 0.00 1 1009.6